Погода в Тури

Погода в Тури : погода сейчас, прогноз погоды и архив. Всё, что Вы хотите узнать о погоде в Тури!

Поиск расширенной информации на нашем сайте:

Полезная информация:

Другие новости

Новости СМИ2

Главная страница сайта

Новости сайта

03.07.2017

Напоминаем, что на нашем специализированном сайте Метеоцентр.Азия вы можете получить высокодетализированные автоматические прогнозы погоды по пунктам России, СНГ и мира в авиационном формате (включающие направление и скорость ветра, видимость, явления погоды, количество и форму облачности, нижнюю и верхнюю границу облачности).

Рекомендуем:

Погода в Тури - сегодня

Время (UTC), дата Ветер
(°,м/с) 
Видим.   Явления Облачность Т
(°С)
Тd
(°С)
f(%) Тe
(°С)
Pmin
(гПа)
dP
(гПа)
Po
(мм)
O2
(г/м3)
Тmin Tmax R s Состояние
почвы
06 19.03.19 200 (Ю) 4{10}  20000 м  ливневой дождь  9/9 210 м 
[]
+1.4 +0.6 94 -1  1006.1  1.7  749  300  +1.4  +4.6  0.4   
09 19.03.19 210 (ЮЗ) 4{08}  10 км  переохл. дождь (гололёд){ливн. осадки}  9/9 210 м 
[]
+1.4 +0.7 95 -1  1008  1.9  750  301  +1.3  +3.1  0.2     
12 19.03.19 200 (Ю) 12000 м  ливневой дождь  10/10 150 м 
[]
+1.6 +0.9 95 -1  1010  752  301  +1.3  +2.6  0.1     
15 19.03.19 230 (ЮЗ) 6000 м  ливневой дождь  10/10 150 м 
[]
+1.5 +1.2 98 1011.7  1.7  753  302  +1.3  +2.4  0.7     
18 19.03.19 270 (З) 15000 м  слаб. дождь{ливн. осадки}  10/10 150 м 
[]
+1.6 +1.1 96 1014.7  755  302  +1.3  +2.1  0.1     
21 19.03.19 260 (З) 9000 м  ливневой дождь  10/10 150 м 
[]
+0.8 +0.5 98 1017.2  2.5  757  304  +0.8  +2.1       
00 20.03.19 250 (З) 8000 м  дымка{ливн. осадки}  10/10 100 м 
[]
+0.5 +0.2 98 -1  1019.2  759  305  +0.5  +2       
03 20.03.19 260 (З) 11000 м  слаб. снег{ливн. осадки}  10/10 300 м 
[]
-0.6 -2 90 -3  1020.9  1.7  760  307  -0.6  +2       
06 20.03.19 240 (ЮЗ) 18000 м  слаб. ливневой снег  10/10 270 м 
[]
-0.9 -2.3 90 -2  1021.5  0.6  760  308  -1.2  +1.6  0.2   
09 20.03.19 210 (ЮЗ) 20000 м    1/1 570 м 
[]
+3.2 -0.6 76 +2  1020.7  -0.8  760  303  -1.2  +3.2       
12 20.03.19 220 (ЮЗ) 4{11}  20000 м    5/1 960 м 
[]
+4.1 -2.7 61 +2  1019.4  -1.3  759  302  -1.2  +4.6       
15 20.03.19 210 (ЮЗ) 4-8{12}  20000 м  слаб. дождь  9/9 900 м 
[]
+3.9 -2 65 +2  1016.4  -3  757  301  -1.2  +4.6       
18 20.03.19 220 (ЮЗ) 3{13}  20000 м  ливневой дождь  10/10 120 м 
[]
+0.9 +0.6 98 -1  1015.9  -0.5  756  304  -0.9  +4.6     
21 20.03.19 260 (З) 20000 м  {ливн. осадки}  9/9 240 м 
[]
+2.3 +1.6 95 +2  1017.1  1.2  757  302  +0.6  +4.6  0.1     
00 21.03.19 240 (ЮЗ) 20000 м    9/9 120 м 
[]
+1.7 +1.3 97 +1  1018.2  1.1  758  303  +0.6  +4.5       
03 21.03.19 240 (ЮЗ) 14000 м    9/9 100 м 
[]
+1.2 +1 99 1018.8  0.6  758  304  +0.6  +3.9       
06 21.03.19 230 (ЮЗ) 20000 м    5/0 
[]
+1.9 +0.8 92 +1  1019.5  0.7  759  304  +0.4  +2.4     
09 21.03.19 210 (ЮЗ) 20000 м    6/0 
[]
+4.9 +2.5 84 +4  1019.2  -0.3  759  300  +0.4  +5.2       
12 21.03.19 230 (ЮЗ) 4{09}  20000 м    8/8 1500 м 
[]
+5.4 +2.2 80 +4  1017.4  -1.8  757  299  +0.4  +6.3       
15 21.03.19 210 (ЮЗ) 4{09}  3200 м  слаб. дождь  10/10 150 м 
[]
+4 +3.5 97 +2  1015  -2.4  756  300  +0.4  +6.3  0.7     
18 21.03.19 240 (ЮЗ) 2800 м  дымка{дождь}  10/10 100 м 
[]
+3.6 +3.6 100 +2  1012.9  -2.1  754  299  +1.9  +6.3     
21 21.03.19 280 (З) 20000 м  в посл. час дождь со снегом{ливн. осадки}  9/9 120 м 
[]
+4.4 +4.2 99 +4  1013.3  0.4  754  298  +3.6  +6.3  0.1     
00 22.03.19 300 (СЗ) 3{09}  20000 м    9/9 2000 м 
[]
+3.3 +0.8 84 +2  1015.5  2.2  756  301  +3.3  +5.5  0.1     
03 22.03.19 290 (З) 3{09}  20000 м    ясно 
[]
+1.2 -4 68 1018.8  3.3  758  305  +1  +4.5       
06 22.03.19 300 (СЗ) 4-11{11}  20000 м    ясно 
[]
+1.7 -4.9 62 1022.1  3.3  761  305  +0.5  +4.5     
Время (UTC), дата Ветер
(°,м/с) 
Видим.   Явления Облачность Т
(°С)
Тd
(°С)
f(%) Тe
(°С)
Pmin
(гПа)
dP
(гПа)
Po
(мм)
O2
(г/м3)
Тmin Tmax R s Состояние
почвы

Для получения пояснительной информации подведите курсор к названию столбца.

ПОГОДА в Тури - архив

Всё, что Вы хотите узнать о погоде в Тури - удобно и подробно!

Выберите нужную дату (начиная с 1 января 2018* года) и нажмите кнопку "Найти".
Будут отображены архивные сводки погоды по пункту Тури, начиная с указанной даты.


Отображать данные в формате CSV (для использования в таблицах Excel)


Внимание! Наш архив погоды предназначен исключительно для личного некоммерческого использования в познавательных целях. Если Вам необходимы официальные справки о состоянии погоды (для производственных, юридических, коммерческих и т.п. целей), обращайтесь в органы Росгидромета.

*Примечание: данная дата относится к архиву по метеостанциям СССР (Россия, СНГ, Балтия).
Архив по метеостанциям Зарубежной Европы и Азии (кроме Китая) хранится 10 дней, по другим регионам земного шара (Китай, Африка, Америка, Австралия, Океания) - 1 день.

Тури - район местоположения метеостанции


Название, широта, долгота, высота метеостанции:
Тури 58.8°ш. 25.4°д. 65 м над ур. моря [Эстония]

Дополнительная информация

В oтличие oт бoльшинства пoгoдных сайтoв мы публикуем пoдрoбную метеoинфoрмацию в детальнoм прoфессиoнальнoм фoрмате.

Характеристики температуры и влажнoсти вoздуха измеряются на высoте 2 м в тени вдали oт зданий и деревьев.
Скoрoсть ветра измеряется на высoте 10 м (на урoвне рoста челoвека скoрoсть ветра ниже в 1.5-2 раза). Если метеoстанция нахoдится в гoрoде или в лесу, тo скoрoсть ветра занижена на 2-4 м/с пo сравнению с oткрытым местoм. Скoрoсть ветра над акватoриями крупных рек и oзёр, а также на вершинах хoлмoв на 2-5 м/с выше, чем в oбычных услoвиях.
Атмoсфернoе давление в разных тoчках местнoсти мoжет значительнo oтличаться oт давления на метеoстанции, в зависимoсти oт услoвий рельефа (при пoдъёме на 10 м давление пoнижается примернo на 1 мм рт.ст.).